Location: Festilli
(46.4000°N, 11.6667°E)
Time: 11:58:40
(UTC+00:00)

ASTEX 1 - Visible Passes

Search period start: 16 June 2021 00:00
Search period end: 26 June 2021 00:00
Orbit: 719 x 744 km, 92.7° (Epoch: 15 June)

Date Brightness Start Highest point End Pass type
(mag) Time Alt. Az. Time Alt. Az. Time Alt. Az.
16 Jun 5.0 01:29:42 10° SE 01:34:09 35° ENE 01:38:37 10° N visible
17 Jun 6.0 00:45:09 10° E 00:47:53 15° ENE 00:50:36 10° NNE visible
17 Jun 3.4 02:21:18 10° S 02:26:15 75° W 02:31:12 10° N visible
18 Jun 4.5 01:34:57 10° SSE 01:39:36 43° ENE 01:44:16 10° N visible
19 Jun 5.9 00:49:55 10° ESE 00:53:16 18° ENE 00:56:35 10° NNE visible
19 Jun 3.5 02:26:54 10° S 02:31:47 59° W 02:36:40 10° NNW visible
20 Jun 4.1 01:40:16 10° SSE 01:45:04 54° E 01:49:53 10° N visible
21 Jun 5.6 00:54:52 10° ESE 00:58:39 23° ENE 01:02:26 10° NNE visible
21 Jun 3.8 02:32:34 10° SSW 02:37:19 47° W 02:42:05 10° NNW visible
22 Jun 3.7 01:45:39 10° SSE 01:50:32 69° E 01:55:27 10° N visible
23 Jun 5.3 00:59:55 10° SE 01:04:03 28° ENE 01:08:11 10° NNE visible
23 Jun 4.1 02:38:20 10° SSW 02:42:53 37° W 02:47:28 10° NNW visible
24 Jun 6.1 00:16:11 10° E 00:17:52 12° ENE 00:19:32 10° NE visible
24 Jun 3.4 01:51:07 10° S 01:56:02 86° E 02:00:58 10° N visible
25 Jun 4.9 01:05:04 10° SE 01:09:29 34° ENE 01:13:53 10° NNE visible
